Regional Weather Roundup
Issued by NWS

Home | Current Version | Previous Version | Graphics & Text | Print | Product List | Glossary On
Versions: 1 2 3 4 5 6 7 8 9 10 11 12 13 14 15 16 17 18 19 20 21 22 23 24 25 26 27 28 29 30 31 32 33 34 35 36 37 38 39 40 41 42 43 44 45 46 47 48 49 50
000
ASUS43 KBIS 010720
RWRND

NORTH DAKOTA REGIONAL WEATHER ROUNDUP
NATIONAL WEATHER SERVICE BISMARCK ND
100 AM CST SUN MAR 01 2015

NOTE: "FAIR" INDICATES FEW OR NO CLOUDS BELOW 12,000 FEET WITH NO
SIGNIFICANT WEATHER AND/OR OBSTRUCTIONS TO VISIBILITY.


NDZ001>003-009>011-017-010800-
NORTHWEST NORTH DAKOTA

CITY           SKY/WX    TMP DP  RH WIND       PRES   REMARKS
WILLISTON      MOCLDY     8   1  73 SW7       30.14S WCI  -3
MINOT          PTCLDY     7  -1  70 SW14      30.11S WCI -10
MINOT AFB      PTCLDY     5  -1  77 W13       30.11S WCI -12
$$

NDZ018>021-031>035-040>046-010800-
SOUTHWEST NORTH DAKOTA

CITY           SKY/WX    TMP DP  RH WIND       PRES   REMARKS
BISMARCK       CLEAR      3  -1  83 W6        30.20F WCI  -8
DICKINSON      CLEAR     10   3  73 W13       30.11F WCI  -5
GARRISON         N/A      1  -3  83 W9        30.13F WCI -14
HETTINGER ARPT PTCLDY     3  -1  83 NW6       30.16F WCI  -8
$$

NDZ004>008-012>016-024-026-027-054-010800-
NORTHEAST NORTH DAKOTA

CITY           SKY/WX    TMP DP  RH WIND       PRES   REMARKS
GRAND FORKS    CLEAR     -1  -6  79 SW6       30.17R WCI -13
GRND FRKS AFB  CLEAR      6  -2  72 W10       30.16S WCI  -9
DEVILS LAKE    CLEAR      1  -6  71 SW9       30.12S WCI -14
$$

NDZ022-023-025-028>030-036>039-047>053-010800-
SOUTHEAST NORTH DAKOTA

CITY           SKY/WX    TMP DP  RH WIND       PRES   REMARKS
FARGO          FAIR       5  -2  72 SW7       30.21S WCI  -7
JAMESTOWN      CLEAR      1  -4  79 W8        30.17S WCI -13
$$



USA.gov is the U.S. government's official web portal to all federal, state and local government web resources and services.